Погода в Хредине

Россия / Псковская область     58°06′41″N   29°24′47″E
темп.,
°C
ветер,
м/с
пор.,
м/с
влажн.,
%
обл.,
%
осадки,
мм/ч
давл.,
гПа
погр.,
м
8 марта, пн
пн800:00−7сз4128036 0.0 998490
03:00−8ссз4109045 0.0 1001637
06:00−8ссз4989100 0.1 1004723
09:00−9с5985100 0.1 1007734
12:00−7с4775100 0.1 1009913
15:00−5с4671100 0.1 1012939
18:00−6ссз377899 0.0 1014748
21:00−9ссз389182 0.1 1016360
9 марта, вт
вт900:00−12ссз25950 0.0 1017153
03:00−12ссз239633 0.0 1018125
06:00−13ссз239782 0.0 1019104
09:00−13с129083 0.1 1021184
12:00−9ссв126994 0.0 1021539
15:00−7всв116297 0.0 1021719
18:00−8в2367100 0.0 1021630
21:00−10в4777100 0.0 1023433
10 марта, ср
ср1000:00−12в4878100 0.0 1024455
03:00−15в4882100 0.0 1026372
06:00−16в498779 0.0 1027371
09:00−15в378239 0.0 1029304
12:00−11вюв475623 0.0 1030569
15:00−8вюв464917 0.0 1030894
18:00−9вюв366143 0.0 1029488
21:00−12вюв387772 0.0 1030229
11 марта, чт
чт1100:00−12юв397986 0.0 1030337
03:00−12ююв4106990 0.0 1029476
06:00−12ююв41165100 0.0 1028461
09:00−12ююв41090100 0.3 1027452
12:00−8ююв4885100 0.4 1025521
15:00−4ююв4875100 0.4 1023687
18:00−5ююв5107984 0.0 1020801
21:00−7ююв5138692 0.0 1018628
12 марта, пт
пт1200:00−8ююв51383100 0.0 1015757
03:00−7ююв61483100 0.0 1012839
06:00−7ююв71582100 0.0 1007783
09:00−7ююв71491100 1.3 1004900
12:00−4ююв71390100 1.6 1002933
15:00−2ююв61193100 3.8 1000766
18:000ю51097100 1.0 999546
21:00+2юз41295100 1.3 1000581